Zurück zum Katalog

DELTA 1 DEB

AktivLEO
NORAD 39100·DEBRIS·🇺🇸 United States

Gestartet Jul 14, 1977 von Cape Canaveral Space Force Station

Loading…

Nächste Überflüge (nächste 24 Stunden)

TLE

AktuellSource: Space-Track

Epoche: Sep 14, 2026, 03:18 UTC

1 39100U 77065GM  26257.13805468  .00005280  00000-0  38928-3 0  9993
2 39100  29.2743 247.8122 0327016 209.6443 148.5245 14.67198028745196

Verfolge DELTA 1 DEB in Echtzeit mit AllMySat

Download on the App Store